Lid_Strength_Index
14 14 14 14 14 12 11 12 12 11 11 11 11 10 10 9 9 8 7 6 5 4 3 4 2 1 1 1 1 2 3 3
14 14 15 14 14 14 13 12 12 12 11 11 11 10 10 9 9 8 8 7 6 6 5 4 4 3 4 4 5 6 7 7
15 15 16 15 15 14 14 14 12 11 11 12 11 11 11 10 10 9 9 8 8 7 7 6 6 6 6 7 7 7 8 9
15 16 16 16 16 15 15 14 13 12 12 11 11 11 11 11 11 10 10 9 9 8 8 8 8 8 8 9 9 9 10 10
15 16 16 16 16 15 15 15 14 13 12 12 12 12 12 11 11 11 10 10 10 9 9 8 8 8 9 10 10 11 11 10
18 16 16 18 17 15 15 15 14 13 14 13 12 12 12 12 12 11 11 11 10 10 10 9 9 9 10 11 11 12 12 11
17 16 15 18 17 15 17 15 15 15 13 13 13 13 13 13 12 12 12 12 11 11 11 11 10 10 10 10 11 12 12 13
14 15 16 16 14 16 15 14 15 15 13 13 13 13 13 13 13 13 13 12 12 11 11 11 11 10 11 11 12 12 13 13
13 14 15 15 17 14 14 14 14 14 13 13 14 14 14 14 14 13 13 13 13 13 12 12 11 11 11 12 12 13 13 14
13 14 15 15 15 15 15 15 15 14 14 15 15 15 15 15 14 15 14 14 14 13 13 14 14 12 12 13 13 14 14 14
13 14 15 15 15 15 15 15 16 15 15 15 15 15 16 15 16 15 15 15 14 14 15 15 14 12 12 13 14 15 15 14
15 15 15 15 15 15 16 16 16 17 16 16 15 15 15 15 16 16 16 16 17 17 17 16 15 13 12 12 14 14 15 15
15 15 16 16 15 16 16 16 18 18 18 18 18 15 15 17 17 18 18 18 18 17 17 17 16 12 11 11 12 12 14 15
15 16 19 18 17 17 17 18 20 21 21 18 19 17 17 17 18 19 19 19 19 17 16 15 17 16 11 11 12 12 15 16
17 17 16 18 18 16 19 19 20 20 21 21 18 18 20 17 17 18 19 20 19 19 18 20 17 19 18 16 16 14 15 14
16 15 15 17 17 18 19 20 20 20 20 20 20 19 19 18 18 17 18 17 20 21 20 22 23 20 16 17 19 21 18 22
16 16 15 16 16 18 19 19 19 19 20 19 19 20 19 20 21 14 14 14 13 14 17 19 16 14 13 13 13 13 14 25
15 15 15 16 16 18 18 19 19 18 18 18 19 19 20 20 20 18 18 12 12 12 12 13 15 13 12 12 12 12 13 27
16 16 15 16 16 17 17 18 17 17 18 18 18 18 18 19 19 21 20 18 17 14 13 12 12 12 12 12 12 15 13 23
17 16 16 15 15 16 18 18 17 17 17 17 17 17 18 18 19 19 21 21 22 27 19 16 12 12 12 12 19 18 16 18